Location: Cosy Dell
(34.2789°N, 117.4537°W)
Time: 12:05:27
(UTC+00:00)

Cosmos 1680 Rocket - Pass Details

Date: 14 July 2020
Orbit: 760 x 781 km, 74.1° (Epoch: 09 August)

Event Time Altitude Azimuth Distance (km) Brightness Sun altitude
Exits shadow 04:22:50 - 187° (S) 3,052 6.3 -14.6°
Reaches altitude 10° 04:24:43 10° 184° (S) 2,322 5.7 -14.9°
Maximum altitude 04:29:56 64° 104° (ESE) 864 3.5 -15.7°
Drops below altitude 10° 04:35:11 10° 24° (NNE) 2,339 6.2 -16.6°
Sets 04:37:36 0° 21° (NNE) 3,269 7.0 -16.9°
